This demonstration page uses our WeatherBlox Daily Observations layout. Learn more.

Left ArrowRight Arrow

30.21309, -93.2044

Hourly Observations for October 29, 2015

Temp ( °F °C ) Dew Point ( °F °C ) Humidity (%) Winds ( mph kmh ) Pressure ( in mb ) Visibility ( mi km ) Precip ( " mm )
12:15 am 00:15 Clear 62 16.6 58 14.3 86 86 NW 3 6 29.85 1011 10 16 0.00 0.00
12:35 am 00:35 Clear 61 16.2 58 14.3 89 89 NW 3 6 29.85 1011 10 16 0.00 0.00
12:55 am 00:55 Clear 61 16 58 14.5 91 91 Calm 29.85 1011 10 16 0.00 0.00
1:15 am 01:15 Clear 61 16 58 14.5 91 91 Calm 29.88 1012 10 16 0.00 0.00
1:35 am 01:35 Clear 61 16.1 58 14.4 90 90 Calm 29.88 1012 10 16 0.00 0.00
1:55 am 01:55 Clear 62 16.5 58 14.5 88 88 Calm 29.85 1011 10 16 0.00 0.00
2:15 am 02:15 Clear 60 15.8 58 14.5 92 92 Calm 29.85 1011 10 16 0.00 0.00
2:35 am 02:35 Clear 59 14.8 57 14.1 96 96 Calm 29.85 1011 10 16 0.00 0.00
2:55 am 02:55 Clear 59 14.8 57 13.9 94 94 NNW 5 7 29.85 1011 10 16 0.00 0.00
3:15 am 03:15 Clear 60 15.3 58 14.3 94 94 NW 3 6 29.88 1012 10 16 0.00 0.00
3:35 am 03:35 Clear 60 15.5 58 14.3 93 93 Calm 29.88 1012 10 16 0.00 0.00
3:55 am 03:55 Clear 59 15 57 14.1 94 94 Calm 29.88 1012 10 16 0.00 0.00
4:15 am 04:15 Clear 57 13.7 56 13.4 98 98 Calm 29.88 1012 10 16 0.00 0.00
4:35 am 04:35 Clear 54 12.2 54 12 99 99 Calm 29.88 1012 7 11 0.00 0.00
4:55 am 04:55 Clear 55 13 55 13 100 100 Calm 29.88 1012 10 16 0.00 0.00
5:15 am 05:15 Clear 56 13.5 56 13.4 99 99 Calm 29.88 1012 10 16 0.00 0.00
6:00 am 06:00 Mostly Clear 55 13 55 13 100 100 Calm 29.88 1012 10 16 0.00 0.00
6:55 am 06:55 Mostly Clear 55 13 55 13 100 100 Calm 29.91 1013 10 16 0.00 0.00
7:45 am 07:45 Mostly Sunny 55 13 55 13 100 100 Calm 29.91 1013 10 16 0.00 0.00
9:55 am 09:55 Mostly Sunny 66 19 61 16 83 83 Calm 29.97 1015 10 16 0.00 0.00
10:45 am 10:45 Mostly Sunny 72 22 59 15 65 65 Calm 29.97 1015 10 16 0.00 0.00
11:55 am 11:55 Mostly Sunny 77 25 55 13 47 47 ENE 3 6 29.97 1015 10 16 0.00 0.00
12:50 pm 12:50 Mostly Sunny 79 26 55 13 45 45 ENE 5 7 29.97 1015 10 16 0.00 0.00
2:55 pm 14:55 Mostly Sunny 79 26 54 12 42 42 Calm 29.91 1013 10 16 0.00 0.00
3:55 pm 15:55 Mostly Sunny 81 27 54 12 39 39 Calm 29.91 1013 10 16 0.00 0.00
4:55 pm 16:55 Mostly Sunny 81 27 52 11 37 37 Calm 29.91 1013 10 16 0.00 0.00
5:55 pm 17:55 Mostly Sunny 73 23 57 14 57 57 Calm 29.91 1013 10 16 0.00 0.00
6:55 pm 18:55 Mostly Clear 70 21 57 14 64 64 E 5 7 29.91 1013 10 16 0.00 0.00
7:50 pm 19:50 Mostly Clear 68 20 59 15 73 73 undefined N/A 29.91 1013 10 16 0.00 0.00
8:50 pm 20:50 Mostly Clear 68 20 59 15 73 73 Calm 29.94 1014 10 16 0.00 0.00
9:50 pm 21:50 Mostly Clear 68 20 59 15 73 73 Calm 29.94 1014 10 16 0.00 0.00
10:15 pm 22:15 Clear 62 16.7 60 15.7 94 94 Calm 29.94 1014 10 16 0.00 0.00
10:35 pm 22:35 Clear 62 16.7 60 15.8 94 94 Calm 29.94 1014 10 16 0.00 0.00
10:55 pm 22:55 Clear 61 16.1 60 15.5 96 96 Calm 29.94 1014 10 16 0.00 0.00
11:15 pm 23:15 Clear 61 16.3 60 15.6 96 96 Calm 29.94 1014 10 16 0.00 0.00
11:35 pm 23:35 Clear 61 16.2 60 15.6 96 96 NE 3 6 29.97 1015 10 16 0.00 0.00
11:55 pm 23:55 Clear 61 16 59 15.2 95 95 Calm 29.94 1014 10 16 0.00 0.00

Powered by AerisWeather